Hourly Data Report for March 18, 2017

All times are specified in Local Standard Time (LST). Add 1 hour to adjust for Daylight Saving Time where and when it is observed.

TORONTO CITY
ONTARIO

43°40'00.000" N
79°24'00.000" W
112.50 m
6158355
71508
XTO

Download Data

Hourly Data (March 2017)
Hourly Data Report for March 18, 2017
TIME Temp Definition
°C
Dew Point Definition
°C
Rel Hum Definition
%
Wind Dir Definition
10's deg

Wind Spd Definition
km/h
Visibility Definition
km
Stn Press Definition
kPa
Hmdx Definition


Wind Chill Definition


Weather Definition


00:00 2.6 -4.4 60 LegendMM LegendMM   100.53     LegendNANA
01:00 2.5 -4.8 58 LegendMM LegendMM   100.48     LegendNANA
02:00 2.9 -5.8 53 LegendMM LegendMM   100.40     LegendNANA
03:00 2.7 -4.4 59 LegendMM LegendMM   100.32     LegendNANA
04:00 2.4 -4.2 62 LegendMM LegendMM   100.27     LegendNANA
05:00 2.7 -4.5 59 LegendMM LegendMM   100.29     LegendNANA
06:00 2.4 -4.1 62 LegendMM LegendMM   100.27     LegendNANA
07:00 2.2 -3.6 65 LegendMM LegendMM   100.30     LegendNANA
08:00 2.2 -3.2 67 LegendMM LegendMM   100.28     LegendNANA
09:00 0.8 -1.0 88 LegendMM LegendMM   100.29     LegendNANA
10:00 0.3 -1.0 91 LegendMM LegendMM   100.30     LegendNANA
11:00 0.5 -1.1 89 LegendMM LegendMM   100.28     LegendNANA
12:00 0.7 -0.8 90 LegendMM LegendMM   100.30     LegendNANA
13:00 0.7 -0.8 90 LegendMM LegendMM   100.29     LegendNANA
14:00 0.2 -1.3 89 LegendMM LegendMM   100.30     LegendNANA
15:00 0.2 -1.5 89 LegendMM LegendMM   100.31     LegendNANA
16:00 0.3 -1.3 89 LegendMM LegendMM   100.35     LegendNANA
17:00 0.6 -1.1 88 LegendMM LegendMM   100.40     LegendNANA
18:00 0.6 -1.0 89 LegendMM LegendMM   100.49     LegendNANA
19:00 0.7 -0.7 90 LegendMM LegendMM   100.57     LegendNANA
20:00 0.9 -0.8 88 LegendMM LegendMM   100.66     LegendNANA
21:00 1.1 -0.4 90 LegendMM LegendMM   100.71     LegendNANA
22:00 1.0 -0.2 92 LegendMM LegendMM   100.75     LegendNANA
23:00 1.3 -0.1 90 LegendMM LegendMM   100.81     LegendNANA

Notes on Data Quality.

Legend

  • E = Estimated
  • M = Missing
  • NA = Not Available
Date modified: